FW1389 Weather Reports


time (UTC)temp
F
wind
direction
speed
knots
gust
knots
rain 1hr
in
rain 24hr
in
rain mn
in
humidity
%
barometer
mb
20260507014642 53 82 0.0 0.0 0.00 0.07 0.00 92 1011.8
20260507013041 53 82 0.0 0.0 0.00 0.07 0.00 92 1011.9
20260507011540 53 82 0.0 0.0 0.00 0.07 0.00 91 1012.1
20260507010055 53 82 0.0 0.0 0.00 0.07 0.00 91 1012.2
20260507004536 54 82 0.0 0.0 0.00 0.07 0.00 91 1012.3
20260507003034 54 82 0.0 0.9 0.00 0.07 0.00 90 1012.3
20260507001533 54 82 0.0 0.9 0.00 0.07 0.00 90 1012.5
20260507000031 54 82 0.0 0.0 0.00 0.07 0.00 89 1012.5
20260506234531 54 82 0.0 0.0 0.00 0.07 0.00 89 1012.6
20260506233028 54 82 0.0 0.0 0.00 0.07 0.00 89 1012.6
20260506231526 55 82 0.0 0.9 0.00 0.07 0.00 89 1012.8
20260506230028 55 82 0.0 0.9 0.00 0.07 0.00 89 1012.7
20260506224523 55 82 0.0 0.9 0.00 0.07 0.00 88 1012.9
20260506223021 55 82 0.0 0.9 0.00 0.07 0.00 88 1013.1
20260506221519 55 82 0.0 0.0 0.00 0.07 0.00 88 1013.2
20260506220133 55 82 0.0 0.9 0.00 0.07 0.00 88 1013.5
20260506214538 55 80 0.0 0.9 0.00 0.07 0.07 88 1013.5
20260506213038 55 80 0.0 1.7 0.00 0.07 0.07 88 1013.5
20260506211536 55 80 0.0 1.7 0.00 0.07 0.07 88 1013.6
20260506210035 55 79 0.0 0.9 0.00 0.07 0.07 87 1013.6
20260506204536 55 72 0.0 1.7 0.00 0.07 0.07 86 1013.5
20260506203033 56 73 0.0 0.9 0.00 0.07 0.07 86 1013.4
20260506201538 56 73 0.0 1.7 0.00 0.07 0.07 84 1013.2
20260506200031 56 72 0.0 0.9 0.00 0.07 0.07 83 1013.2
20260506194531 56 72 0.0 2.6 0.00 0.07 0.07 82 1013.3
20260506193031 57 69 0.0 0.9 0.00 0.07 0.07 83 1013.5
20260506191530 57 67 0.9 3.5 0.00 0.07 0.07 83 1013.5
20260506190031 57 85 0.0 0.9 0.00 0.07 0.07 83 1013.4
20260506184532 58 79 0.9 2.6 0.00 0.07 0.07 83 1013.3
20260506183026 58 78 0.0 3.5 0.00 0.07 0.07 82 1013.4
20260506181526 58 78 0.9 3.5 0.00 0.07 0.07 80 1013.5
20260506180031 59 85 0.9 2.6 0.00 0.07 0.07 79 1013.6
20260506174528 59 174 0.0 2.6 0.00 0.07 0.07 80 1013.6
20260506173024 57 42 0.0 4.3 0.00 0.07 0.07 83 1013.6
20260506171534 57 42 0.9 4.3 0.00 0.07 0.07 83 1013.7
20260506170020 58 38 1.7 5.2 0.00 0.07 0.07 82 1013.7
20260506164523 58 38 0.9 3.5 0.00 0.07 0.07 80 1013.9
20260506163019 58 38 0.0 2.6 0.00 0.07 0.07 78 1013.8
20260506161518 58 37 1.7 5.2 0.00 0.07 0.07 79 1013.8
20260506160020 57 355 0.9 7.0 0.00 0.07 0.07 80 1013.8
20260506154519 58 13 1.7 3.5 0.00 0.07 0.07 82 1013.9
20260506153015 58 344 2.6 7.0 0.00 0.07 0.07 82 1013.9
20260506151521 58 44 1.7 5.2 0.00 0.07 0.07 77 1014.0
20260506150013 59 57 1.7 4.3 0.00 0.07 0.07 76 1014.2
20260506144511 60 24 1.7 5.2 0.00 0.07 0.07 77 1014.2
20260506143011 59 22 1.7 5.2 0.00 0.07 0.07 78 1014.4
20260506141510 59 40 1.7 5.2 0.00 0.07 0.07 76 1014.3
20260506140017 59 33 2.6 4.3 0.00 0.07 0.07 77 1014.7
20260506134510 59 343 1.7 6.1 0.00 0.07 0.07 78 1014.6
20260506133012 60 25 1.7 4.3 0.00 0.07 0.07 74 1014.8
20260506131507 60 19 0.0 3.5 0.00 0.07 0.07 77 1014.8
20260506130004 59 17 0.0 1.7 0.00 0.07 0.07 79 1014.9
20260506124505 59 24 0.9 3.5 0.00 0.07 0.07 79 1014.9
20260506123001 59 18 0.9 2.6 0.00 0.07 0.07 78 1015.1
20260506121601 59 15 0.9 3.5 0.00 0.07 0.07 78 1015.3
20260506114556 58 22 0.0 3.5 0.00 0.08 0.07 81 1015.4
20260506113052 57 22 0.0 1.7 0.00 0.08 0.07 82 1015.5
20260506111551 56 22 0.9 4.3 0.00 0.08 0.07 83 1015.5
20260506110051 56 346 1.7 5.2 0.00 0.08 0.07 87 1015.5
20260506104555 57 24 1.7 4.3 0.00 0.08 0.07 85 1015.5
20260506103052 56 14 0.9 2.6 0.00 0.08 0.07 85 1015.6
20260506101546 56 250 0.0 1.7 0.00 0.08 0.07 87 1015.5
20260506100100 56 250 0.0 2.6 0.00 0.08 0.07 88 1015.4
20260506094542 55 250 0.9 2.6 0.00 0.08 0.07 88 1015.4
20260506093040 56 250 0.9 3.5 0.00 0.08 0.07 90 1015.3
20260506091539 55 246 0.0 2.6 0.00 0.08 0.07 91 1015.3
20260506090037 55 246 0.0 2.6 0.00 0.12 0.07 93 1015.3
20260506084540 54 248 0.0 0.9 0.00 0.12 0.07 95 1015.2
20260506083032 54 248 0.0 0.9 0.00 0.12 0.07 95 1015.2
20260506081533 53 248 0.0 0.9 0.00 0.12 0.07 96 1015.2
20260506073029 52 248 0.0 0.9 0.00 0.16 0.07 96 1015.1
20260506071526 52 248 0.0 0.0 0.00 0.16 0.07 96 1015.1
20260506061520 52 250 0.9 2.6 0.06 0.26 0.07 95 1014.8
20260506044525 52 247 0.9 3.5 0.01 0.24 0.01 94 1014.6
20260506043011 52 250 0.9 2.6 0.01 0.24 0.01 94 1014.6
20260506041511 52 249 0.9 3.5 0.01 0.24 0.01 94 1014.6
20260506040009 53 250 0.9 3.5 0.00 0.23 0.00 93 1014.8
20260506034508 52 252 0.9 3.5 0.00 0.23 0.00 94 1014.9
20260506033007 53 253 0.9 2.6 0.00 0.23 0.00 93 1015.0
20260506031516 53 252 0.9 2.6 0.00 0.23 0.00 93 1015.0
20260506030012 53 252 0.0 2.6 0.00 0.23 0.00 93 1015.0
20260506024510 53 252 0.0 1.7 0.00 0.23 0.00 93 1015.2
20260506023002 53 252 0.0 3.5 0.00 0.23 0.00 93 1015.1
20260506021502 53 250 0.9 3.5 0.00 0.23 0.00 93 1015.2
20260506020001 53 254 0.9 5.2 0.00 0.23 0.00 93 1015.3